Погода Кокпекты

Погода Кокпекты : погода сейчас, прогноз погоды и архив. Всё, что Вы хотите узнать о погоде Кокпекты!

Поиск расширенной информации на нашем сайте:

Полезная информация: Беременные фотосессии ню подробно.

Другие новости

Новости СМИ2

Главная страница сайта

Новости сайта

03.07.2017

Напоминаем, что на нашем специализированном сайте Метеоцентр.Азия вы можете получить высокодетализированные автоматические прогнозы погоды по пунктам России, СНГ и мира в авиационном формате (включающие направление и скорость ветра, видимость, явления погоды, количество и форму облачности, нижнюю и верхнюю границу облачности).

Рекомендуем: Негабарит заказ трала заказ трала.

Погода Кокпекты - сегодня

Время (UTC), дата Ветер
(°,м/с) 
Видим.   Явления Облачность Т
(°С)
Тd
(°С)
f(%) Тe
(°С)
Pmin
(гПа)
dP
(гПа)
Po
(мм)
O2
(г/м3)
Тmin Tmax R s Состояние
почвы
03 19.08.17 220 (ЮЗ) 20000 м    9/4 600 м кучево-дожд., средняя 
[Cb calv|Ac trans]
+16.3 +8 58 +16  1017.1  1.4  719  272  +8.8        сухая 
06 19.08.17 230 (ЮЗ) 20000 м    9/8 600 м кучево-дожд., средняя 
[Cb calv|Ac trans]
+20.6 +6.9 41 +21  1015.7  -0.5  718  268  +8.8         
09 19.08.17 240 (ЮЗ) 20000 м    9/5 600 м кучево-дожд., средняя 
[Cb calv|Ac trans]
+21.4 +6.8 39 +21  1015.3  -0.2  718  267           
12 19.08.17 230 (ЮЗ) 20000 м    8/4 600 м кучево-дожд., средняя 
[Cb calv|Ac trans]
+19.5 +6.6 43 +20  1017.1  1.3  719  269           
15 19.08.17 220 (ЮЗ) н/о    5/3 600 м кучево-дожд., средняя 
[Cb calv|Ac trans]
+16 +7.8 58 +16  1019.7  1.8  720  273    +21.8       
18 19.08.17 230 (ЮЗ) н/о    4/0 средняя 
[Ac trans]
+12.6 +5.7 63 +12  1020.9  0.4  721  277    +21.8       
21 19.08.17 240 (ЮЗ) н/о    3/0 средняя 
[Ac trans]
+10.8 +6 72 +10  1021.2  -0.1  721  278           
00 20.08.17 220 (ЮЗ) 20000 м    3/0 средняя 
[Ac trans]
+8.5 +5 79 +9  1022.2  0.5  721  281           
03 20.08.17 220 (ЮЗ) 20000 м    ясно 
+14.8 +6.5 58 +15  1020.4  -0.4  721  274           
06 20.08.17 250 (З) 20000 м    5/0 средняя, верхняя 
[Ac trans|Ci fib]
+20 +6.3 41 +20  1018.2  -1.1  720  269  +8.5         
09 20.08.17 220 (ЮЗ) 20000 м    8/0 средняя, верхняя 
[Ac trans|Ci sp]
+22.2 +5.9 35 +22  1016.9  -0.8  719  267           
12 20.08.17 230 (ЮЗ) 20000 м    4/0 средняя 
[Ac trans]
+18.5 +4 38 +19  1017.9  0.2  719  271           
15 20.08.17 230 (ЮЗ) н/о    ясно 
+14.5 +4.6 51 +15  1019.5  0.8  720  275    +22.5       
18 20.08.17 220 (ЮЗ) н/о    ясно 
+10.6 +4 64 +10  1021.4  721  279    +22.5       
21 20.08.17 230 (ЮЗ) н/о    ясно 
+7 +2.5 73 +7  1022.7  0.4  721  283           
00 21.08.17 220 (ЮЗ) 20000 м    ясно 
+9.5 +6.1 79 +9  1021.2  -0.8  721  279           
03 21.08.17 200 (Ю) 20000 м    ясно 
+15.2 +6.8 57 +15  1020.2  0.2  721  274  +7        сухая 
06 21.08.17 220 (ЮЗ) 20000 м    ясно 
+19.7 +5 38 +20  1018.9  -0.4  720  270  +7         
09 21.08.17 240 (ЮЗ) 20000 м    3/0 средняя 
[Ac trans]
+21.5 +3.2 30 +22  1017.9  -0.6  720  268           
12 21.08.17 230 (ЮЗ) 20000 м    4/0 средняя 
[Ac trans]
+20 +3.8 34 +20  1018.3  0.1  720  270           
15 21.08.17 230 (ЮЗ) н/о    ясно 
+15.3 +4.9 50 +16  1020.4  1.1  721  274    +22.3       
18 21.08.17 210 (ЮЗ) н/о    ясно 
+12 +5 62 +13  1020.3  -0.8  720  277    +22.3       
21 21.08.17 тихо ()   н/о    ясно 
+9.5 +3.9 68 +10  1020.2  -0.6  720  280           
00 22.08.17 тихо ()   20000 м    ясно 
+6.9 +2.7 75 +7  1021  0.2  720  282           
03 22.08.17 230 (ЮЗ) 20000 м    ясно 
+16.9 +8.3 57 +18  1019.1  0.3  720  272  +6.9        сухая 
Время (UTC), дата Ветер
(°,м/с) 
Видим.   Явления Облачность Т
(°С)
Тd
(°С)
f(%) Тe
(°С)
Pmin
(гПа)
dP
(гПа)
Po
(мм)
O2
(г/м3)
Тmin Tmax R s Состояние
почвы

Для получения пояснительной информации подведите курсор к названию столбца.

ПОГОДА Кокпекты - архив

Всё, что Вы хотите узнать о погоде Кокпекты - удобно и подробно!

Выберите нужную дату (начиная с 1 января 2015* года) и нажмите кнопку "Найти".
Будут отображены архивные сводки погоды по пункту Кокпекты, начиная с указанной даты.


Отображать данные в формате CSV (для использования в таблицах Excel)


Внимание! Наш архив погоды предназначен исключительно для личного некоммерческого использования в познавательных целях. Если Вам необходимы официальные справки о состоянии погоды (для производственных, юридических, коммерческих и т.п. целей), обращайтесь в органы Росгидромета.

*Примечание: данная дата относится к архиву по метеостанциям СССР (Россия, СНГ, Балтия).
Архив по метеостанциям Зарубежной Европы и Азии (кроме Китая) хранится 10 дней, по другим регионам земного шара (Китай, Африка, Америка, Австралия, Океания) - 1 день.

Кокпекты - район местоположения метеостанции


Название, широта, долгота, высота метеостанции:
Кокпекты 48.8°ш. 82.4°д. 512 м над ур. моря [Казахстан]

Дополнительная информация

В oтличие oт бoльшинства пoгoдных сайтoв мы публикуем пoдрoбную метеoинфoрмацию в детальнoм прoфессиoнальнoм фoрмате.

Характеристики температуры и влажнoсти вoздуха измеряются на высoте 2 м в тени вдали oт зданий и деревьев.
Скoрoсть ветра измеряется на высoте 10 м (на урoвне рoста челoвека скoрoсть ветра ниже в 1.5-2 раза). Если метеoстанция нахoдится в гoрoде или в лесу, тo скoрoсть ветра занижена на 2-4 м/с пo сравнению с oткрытым местoм. Скoрoсть ветра над акватoриями крупных рек и oзёр, а также на вершинах хoлмoв на 2-5 м/с выше, чем в oбычных услoвиях.
Атмoсфернoе давление в разных тoчках местнoсти мoжет значительнo oтличаться oт давления на метеoстанции, в зависимoсти oт услoвий рельефа (при пoдъёме на 10 м давление пoнижается примернo на 1 мм рт.ст.).